Location: Sundre
(51.7972°N, 114.6405°W)
Time: 02:37:23
(UTC-07:00)

AO-73 - Visible Passes

Search period start: 26 January 2020 00:00
Search period end: 05 February 2020 00:00
Orbit: 582 x 664 km, 97.6° (Epoch: 25 January)

Date Brightness Start Highest point End Pass type
(mag) Time Alt. Az. Time Alt. Az. Time Alt. Az.
26 Jan ? 05:37:59 10° ENE 05:40:08 13° E 05:42:16 10° ESE visible
26 Jan ? 07:12:32 10° NNE 07:16:56 86° WNW 07:21:24 10° SSW visible
26 Jan ? 18:13:00 10° S 18:17:04 58° W 18:21:13 10° NNW visible
27 Jan ? 05:55:18 10° NE 05:58:29 19° E 06:01:43 10° SE visible
27 Jan ? 07:30:44 10° N 07:35:03 59° WNW 07:39:26 10° SSW visible
27 Jan ? 18:31:25 10° SSW 18:35:17 38° W 18:39:14 10° NNW visible
28 Jan ? 06:13:00 10° NE 06:16:48 27° E 06:20:38 10° SSE visible
28 Jan ? 18:50:02 10° SSW 18:53:32 26° W 18:57:07 10° NW visible
29 Jan ? 06:30:53 10° NNE 06:35:04 40° E 06:39:17 10° SSE visible
29 Jan ? 19:08:58 10° SW 19:11:51 18° W 19:14:49 10° NW visible
30 Jan ? 06:48:54 10° NNE 06:53:17 59° E 06:57:43 10° S visible
30 Jan ? 19:28:27 10° WSW 19:30:14 12° W 19:32:02 10° WNW visible
31 Jan ? 05:32:45 10° ENE 05:34:36 12° E 05:36:27 10° ESE visible
31 Jan ? 07:07:00 10° NNE 07:11:28 86° ESE 07:15:58 10° SSW visible
31 Jan ? 18:07:23 10° S 18:11:31 65° WSW 18:15:46 10° NNW visible
01 Feb ? 05:49:54 10° NE 05:52:58 18° E 05:56:03 10° SE visible
01 Feb ? 07:25:10 10° N 07:29:35 66° WNW 07:34:04 10° SSW visible
01 Feb ? 18:25:45 10° S 18:29:43 43° W 18:33:48 10° NNW visible
02 Feb ? 06:07:33 10° NE 06:11:17 25° E 06:15:03 10° SSE visible
02 Feb ? 18:44:18 10° SSW 18:47:59 29° W 18:51:44 10° NNW visible
03 Feb ? 06:25:24 10° NNE 06:29:34 37° E 06:33:46 10° SSE visible
03 Feb ? 19:03:08 10° SW 19:06:17 20° W 19:09:29 10° NW visible
04 Feb ? 06:43:23 10° NNE 06:47:48 53° E 06:52:15 10° S visible
04 Feb ? 19:22:23 10° WSW 19:24:38 14° W 19:26:55 10° NW visible
